sat.trackr.live / text

‹ back to catalog

STARLINK-36304

NORAD 68550 · 2026-070J

PAYLOAD ACTIVE UNKNOWN

§ Identity

Operator
Country
US
Launch date
2026-04-02
Launch site
AFETR
Launch vehicle
Mass (kg)
RCS (m²)

Purposes: comms

External: N2YO · Heavens-Above · Gunter

§ Orbital elements

Epoch: 2026-05-25T00:00:02.000160Z

Period
93.85 min
Inclination
53.1600°
Eccentricity
0.0001060
Mean motion
15.34372252 rev/d
Perigee alt
462.1 km
Apogee alt
463.5 km
Semi-major
6,840.9 km
B*
1.6497e-3
RAAN
7.7296°
Arg perigee
66.8447°
Mean anomaly
303.1286°
Rev number
598

§ Raw data

STARLINK-363041 68550U 26070J   26145.00002315  .00055725  00000+0  16497-2 0  99902 68550  53.1600   7.7296 0001060  66.8447 303.1286 15.34372252  5983

JSON: /api/v1/satellites/68550 · /tle

For live sub-satellite position, see the globe view (requires WebGL).

§ Visibility from observer

Set your observer location to see the next 7 days of passes ≥ 10°. The values pass through the URL so the page stays shareable.

No JS? Fill the form by hand. The geolocation button needs JavaScript.